This is the latest recevied weather packets stored in our database for station/object KB1RMA-4. If no packets are shown the sender has not sent any weather packets the latest 10 day(s).
| Time | Temp. | Humidity | Pressure | Rain* | Wind** | Luminosity | Snow |
|---|---|---|---|---|---|---|---|
| 1788480489 | 18.33° C | 93% | 1012 hPa | 0 mm | - | 0 W/m² | - |
| 1788480187 | 18.33° C | 92% | 1012.2 hPa | 0 mm | - | 0 W/m² | - |
| 1788479883 | 18.33° C | 92% | 1012 hPa | 0 mm | - | 0 W/m² | - |
| 1788479579 | 18.33° C | 92% | 1011.9 hPa | 0 mm | - | 0 W/m² | - |
| 1788479278 | 18.33° C | 92% | 1011.8 hPa | 0 mm | - | 0 W/m² | - |
| 1788478975 | 18.89° C | 92% | 1011.7 hPa | 0 mm | - | 0 W/m² | - |
| 1788478670 | 18.89° C | 92% | 1011.6 hPa | 0 mm | - | 0 W/m² | - |
| 1788478366 | 18.89° C | 92% | 1011.8 hPa | 0 mm | - | 0 W/m² | - |
| 1788478065 | 18.89° C | 92% | 1011.9 hPa | 0 mm | - | 0 W/m² | - |
| 1788477761 | 18.89° C | 92% | 1011.8 hPa | 0 mm | - | 0 W/m² | - |
| 1788477460 | 18.89° C | 91% | 1012.1 hPa | 0 mm | - | 0 W/m² | - |
| 1788477156 | 18.89° C | 91% | 1012.1 hPa | 0 mm | - | 0 W/m² | - |
| 1788476851 | 18.89° C | 91% | 1011.8 hPa | 0 mm | - | 2 W/m² | - |
| 1788476546 | 18.89° C | 91% | 1011.6 hPa | 0 mm | - | 4 W/m² | - |
| 1788476242 | 19.44° C | 91% | 1011.6 hPa | 0 mm | - | 7 W/m² | - |
| 1788475938 | 19.44° C | 90% | 1011.8 hPa | 0 mm | - | 12 W/m² | - |
| 1788475634 | 19.44° C | 90% | 1011.9 hPa | 0 mm | - | 16 W/m² | - |
| 1788475330 | 19.44° C | 90% | 1012 hPa | 0 mm | - | 21 W/m² | - |
| 1788475025 | 19.44° C | 90% | 1012.2 hPa | 0 mm | - | 26 W/m² | - |
| 1788474724 | 20° C | 89% | 1012.4 hPa | 0 mm | - | 27 W/m² | - |
| 1788474424 | 20° C | 89% | 1012.4 hPa | 0 mm | - | 30 W/m² | - |
| 1788474123 | 20° C | 89% | 1012.4 hPa | 0 mm | - | 32 W/m² | - |
| 1788473818 | 20° C | 88% | 1012.5 hPa | 0 mm | - | 43 W/m² | - |
| 1788473516 | 20° C | 88% | 1012.4 hPa | 0 mm | - | 47 W/m² | - |
| 1788473215 | 20.56° C | 87% | 1012.3 hPa | 0 mm | - | 41 W/m² | - |
* Rain latest hour (hover to see other rain measurements)
** Current wind speed in m/s (hover to see current wind gust speed)